sat.trackr.live / text

‹ back to catalog

GLOBALSTAR M095

NORAD 39077 · 2013-005F

PAYLOAD ACTIVE UNKNOWN

§ Identity

Operator
Country
GLOB
Launch date
2013-02-06
Launch site
TYMSC
Launch vehicle
Mass (kg)
RCS (m²)
4.87

Purposes: comms

External: N2YO · Heavens-Above · Gunter

§ Orbital elements

Epoch: 2026-05-25T00:39:29.151936Z

Period
114.08 min
Inclination
52.0099°
Eccentricity
0.0000464
Mean motion
12.62263024 rev/d
Perigee alt
1,413.3 km
Apogee alt
1,414.0 km
Semi-major
7,791.8 km
B*
8.7418e-5
RAAN
351.7087°
Arg perigee
106.0986°
Mean anomaly
253.9932°
Rev number
61,294

§ Raw data

GLOBALSTAR M0951 39077U 13005F   26145.02742074 -.00000088  00000+0  87418-4 0  99972 39077  52.0099 351.7087 0000464 106.0986 253.9932 12.62263024612941

JSON: /api/v1/satellites/39077 · /tle

For live sub-satellite position, see the globe view (requires WebGL).

§ Visibility from observer

Set your observer location to see the next 7 days of passes ≥ 10°. The values pass through the URL so the page stays shareable.

No JS? Fill the form by hand. The geolocation button needs JavaScript.